CAPE
0 0 0 0 0 0 0 0 0 0 0 0 0 0 0 0 0 0 0 0 0 0 0 0 0 0 0 0 1 2 0 0 1 5 6 9 4 9 1 10 12 16 17
0 0 0 0 0 0 0 0 0 0 0 0 0 0 0 0 0 0 0 0 0 0 0 0 0 0 0 0 0 0 0 2 1 2 4 3 7 1 5 8 3 6 5
0 0 0 0 0 0 0 0 0 0 0 0 0 0 0 0 0 0 0 0 0 0 0 0 0 0 0 0 0 0 0 0 1 3 4 4 6 8 4 9 13 18 7
0 0 0 0 0 0 0 0 0 0 0 0 0 0 0 0 0 0 0 0 0 0 0 0 0 0 0 0 0 0 0 0 1 1 3 4 8 10 4 5 5 15 19
0 0 0 0 0 0 0 0 0 0 0 0 0 0 0 0 0 0 0 0 0 0 0 0 0 0 0 0 0 0 0 0 1 1 2 5 5 12 8 12 6 20 24
0 0 0 0 0 0 0 0 0 0 0 0 0 0 0 0 0 0 0 0 0 0 0 0 0 0 0 0 0 0 0 0 1 5 4 5 6 9 12 10 2 8 27
0 0 0 0 0 0 0 0 0 0 0 0 0 0 0 0 0 0 0 0 0 0 0 0 0 0 0 0 0 0 0 0 0 1 7 7 10 14 12 14 22 11 13
0 0 0 0 0 0 0 0 0 0 0 0 0 0 0 0 0 0 0 0 0 0 0 0 0 0 0 0 0 0 0 0 0 0 0 0 1 8 16 19 18 9 8
0 0 0 0 0 0 0 0 0 0 0 0 0 0 0 0 0 0 0 0 0 0 0 0 0 0 0 0 0 0 0 0 0 0 0 0 0 1 9 14 13 11 12
0 0 0 0 0 0 0 0 0 0 0 0 0 0 0 0 0 0 0 0 0 0 0 0 0 0 0 0 0 0 0 0 0 0 0 0 1 0 2 9 17 20 19
0 0 0 0 0 0 0 0 0 0 0 0 0 0 0 0 0 0 0 0 0 0 0 0 0 0 0 0 0 0 0 0 0 0 0 0 0 0 1 6 15 19 22
0 0 0 0 0 0 0 0 0 0 0 0 0 0 0 0 0 0 0 0 0 0 0 0 0 0 0 0 0 0 0 0 0 0 0 0 0 1 3 3 10 15 20
0 0 0 0 0 0 0 0 0 0 0 0 0 0 0 0 0 0 0 0 0 0 0 0 0 0 0 0 0 0 0 0 0 0 0 0 0 0 1 2 6 14 20
0 0 0 0 0 0 0 0 0 0 0 0 0 0 0 0 0 0 0 0 0 0 0 0 0 0 0 0 0 0 0 0 0 0 0 0 0 0 1 3 6 13 17
0 0 0 0 0 0 0 0 0 0 0 0 0 0 0 0 0 0 0 0 0 0 0 0 0 0 0 0 0 0 0 0 0 0 0 0 0 0 0 1 3 16 21
0 0 0 0 0 0 0 0 0 0 0 0 0 0 0 0 0 0 0 0 0 0 0 0 0 0 0 0 0 0 0 0 0 0 0 0 0 0 0 1 11 29 27
0 0 0 0 0 0 0 0 0 0 0 0 0 0 0 0 0 0 0 0 0 0 0 0 0 0 0 0 0 0 0 0 0 0 0 0 0 0 0 2 12 18 23
0 0 0 0 0 0 0 0 0 0 0 0 0 0 0 0 0 0 0 0 0 0 0 0 0 0 0 0 0 0 0 0 0 0 0 0 0 0 1 0 11 20 38
0 0 0 0 0 0 0 0 0 0 0 0 0 0 0 0 0 0 0 0 0 0 0 0 0 0 0 0 0 0 0 0 0 0 0 0 0 3 3 9 22 39 29
0 0 0 0 0 0 0 0 0 0 0 0 0 0 0 0 0 0 0 0 0 0 0 0 0 0 0 0 0 0 0 0 0 0 0 0 0 0 1 14 26 26 24
0 0 0 0 0 0 0 0 0 0 0 0 0 0 0 0 0 0 0 0 0 0 0 0 0 0 0 0 0 0 0 0 0 0 0 0 0 0 0 0 1 4 10
0 0 0 0 0 0 0 0 0 0 0 0 0 0 0 0 0 0 0 0 0 0 0 0 0 0 0 0 0 0 0 0 0 0 0 0 0 0 0 0 0 2 12
0 0 0 0 0 0 0 0 0 0 0 0 0 0 0 0 0 0 0 0 0 0 0 0 0 0 0 0 0 0 0 2 2 0 0 0 0 0 0 0 0 5 17
0 0 0 0 0 0 0 0 0 0 0 0 0 0 0 0 0 0 0 0 0 0 0 0 0 0 0 0 0 4 16 9 2 2 0 0 0 0 0 0 0 2 6
0 0 0 0 0 0 0 0 0 0 0 0 0 0 0 0 0 0 0 0 0 0 0 0 0 3 11 14 12 9 4 8 10 0 0 0 0 0 0 0 0 0 3
0 0 0 0 0 0 0 0 0 0 0 0 0 0 0 0 0 0 0 0 0 0 0 0 1 0 0 0 0 2 4 14 18 12 0 0 0 0 0 0 0 0 0
CIN
0 0 0 0 0 0 0 0 0 0 0 0 0 0 0 0 0 0 0 0 0 0 0 0 0 0 0 0 0 0 0 0 -1 0 0 -1 -1 0 0 -1 -1 -2 -1
0 0 0 0 0 0 0 0 0 0 0 0 0 0 0 0 0 0 0 0 0 0 0 0 0 0 0 0 0 0 0 -1 0 -1 0 -1 -1 0 -1 0 -1 -1 -1
0 0 0 0 0 0 0 0 0 0 0 0 0 0 0 0 0 0 0 0 0 0 0 0 0 0 0 0 0 0 0 0 0 -1 -1 -1 0 -1 0 -1 -2 -2 -1
0 0 0 0 0 0 0 0 0 0 0 0 0 0 0 0 0 0 0 0 0 0 0 0 0 0 0 0 0 0 0 0 0 -1 0 -1 -1 0 0 -1 0 -2 -2
0 0 0 0 0 0 0 0 0 0 0 0 0 0 0 0 0 0 0 0 0 0 0 0 0 0 0 0 0 0 0 0 0 0 0 0 -1 -1 -1 -1 0 -1 -2
0 0 0 0 0 0 0 0 0 0 0 0 0 0 0 0 0 0 0 0 0 0 0 0 0 0 0 0 0 0 0 0 0 -1 -1 0 0 -1 0 -1 -1 -2 0
0 0 0 0 0 0 0 0 0 0 0 0 0 0 0 0 0 0 0 0 0 0 0 0 0 0 0 0 0 0 0 0 0 -1 0 0 -1 -1 -1 0 -1 0 -2
0 0 0 0 0 0 0 0 0 0 0 0 0 0 0 0 0 0 0 0 0 0 0 0 0 0 0 0 0 0 0 0 0 0 0 0 0 -1 -1 -1 -1 -1 -1
0 0 0 0 0 0 0 0 0 0 0 0 0 0 0 0 0 0 0 0 0 0 0 0 0 0 0 0 0 0 0 0 0 0 0 0 0 -1 0 -1 -1 -1 0
0 0 0 0 0 0 0 0 0 0 0 0 0 0 0 0 0 0 0 0 0 0 0 0 0 0 0 0 0 0 0 0 0 0 0 0 0 0 -1 -1 -1 -1 -1
0 0 0 0 0 0 0 0 0 0 0 0 0 0 0 0 0 0 0 0 0 0 0 0 0 0 0 0 0 0 0 0 0 0 0 0 0 0 -1 -1 -1 -1 -1
0 0 0 0 0 0 0 0 0 0 0 0 0 0 0 0 0 0 0 0 0 0 0 0 0 0 0 0 0 0 0 0 0 0 0 0 0 0 -1 -1 -1 -1 0
0 0 0 0 0 0 0 0 0 0 0 0 0 0 0 0 0 0 0 0 0 0 0 0 0 0 0 0 0 0 0 0 0 0 0 0 0 0 0 0 -1 0 -1
0 0 0 0 0 0 0 0 0 0 0 0 0 0 0 0 0 0 0 0 0 0 0 0 0 0 0 0 0 0 0 0 0 0 0 0 0 0 0 0 -1 0 -1
0 0 0 0 0 0 0 0 0 0 0 0 0 0 0 0 0 0 0 0 0 0 0 0 0 0 0 0 0 0 0 0 0 0 0 0 0 0 0 0 -1 -1 -1
0 0 0 0 0 0 0 0 0 0 0 0 0 0 0 0 0 0 0 0 0 0 0 0 0 0 0 0 0 0 0 0 0 0 0 0 0 0 0 -3 0 -1 -1
0 0 0 0 0 0 0 0 0 0 0 0 0 0 0 0 0 0 0 0 0 0 0 0 0 0 0 0 0 0 0 0 0 0 0 0 0 0 0 -6 -1 0 0
0 0 0 0 0 0 0 0 0 0 0 0 0 0 0 0 0 0 0 0 0 0 0 0 0 0 0 0 0 0 0 0 0 0 0 0 0 0 -6 -5 -1 -3 0
0 0 0 0 0 0 0 0 0 0 0 0 0 0 0 0 0 0 0 0 0 0 0 0 0 0 0 0 0 0 0 0 0 0 0 0 0 -5 -1 -1 0 0 0
0 0 0 0 0 0 0 0 0 0 0 0 0 0 0 0 0 0 0 0 0 0 0 0 0 0 0 0 0 0 0 0 0 0 0 0 0 0 -4 0 0 0 0
0 0 0 0 0 0 0 0 0 0 0 0 0 0 0 0 0 0 0 0 0 0 0 0 0 0 0 0 0 0 0 0 0 0 0 0 0 0 0 -3 -2 -3 0
0 0 0 0 0 0 0 0 0 0 0 0 0 0 0 0 0 0 0 0 0 0 0 0 0 0 0 0 0 0 0 0 0 0 0 0 0 0 0 0 0 -1 0
0 0 0 0 0 0 0 0 0 0 0 0 0 0 0 0 0 0 0 0 0 0 0 0 0 0 0 0 0 0 0 -28 -22 -4 0 0 -6 0 0 0 0 -1 0
0 0 0 0 0 0 0 0 0 0 0 0 0 0 0 0 0 0 0 0 0 0 0 0 0 0 0 0 0 -13 -5 -8 -40 -21 0 0 0 0 -7 0 0 0 0
0 0 0 0 0 0 0 0 0 0 0 0 0 0 0 0 0 0 0 0 0 0 0 0 0 -3 -3 -2 -2 -3 -7 -2 -3 -3 0 0 0 0 0 0 0 0 0
0 0 0 0 0 0 0 0 0 0 0 0 0 0 0 0 0 0 0 0 0 0 0 -1 -6 0 0 0 -12 -20 -12 0 -1 -1 -5 0 -46 0 -2 0 0 0 0
Wind_Speed
11 10 9 9 9 9 9 9 9 9 9 9 9 9 9 8 8 7 7 6 7 8 11 12 14 14 15 17 18 18 19 19 20 21 21 22 22 22 22 22 23 21 21
10 9 8 8 8 9 9 9 10 10 9 9 9 9 8 8 7 7 6 6 5 5 5 8 9 11 12 14 16 17 19 20 19 20 22 21 22 22 23 23 22 23 23
9 8 8 8 8 9 10 11 11 11 11 12 10 10 9 7 7 6 6 6 4 4 4 4 4 6 9 12 13 15 17 19 20 19 21 21 21 22 22 23 24 24 24
8 8 8 7 8 9 10 11 12 12 12 13 12 11 10 9 7 7 5 5 5 5 5 5 4 2 3 7 10 12 12 14 17 19 19 21 22 22 22 23 24 24 24
7 6 7 7 7 8 8 10 12 14 14 14 13 13 12 10 9 8 8 7 6 6 5 6 8 6 4 4 4 9 12 12 11 14 18 20 22 22 22 22 22 23 24
6 6 5 5 7 8 8 11 12 15 14 15 16 16 13 11 10 8 8 7 6 7 8 8 8 9 9 7 8 9 9 11 12 12 13 16 19 21 23 23 24 23 23
6 5 4 5 6 7 7 8 11 13 16 17 21 22 19 13 12 11 11 9 9 9 12 11 10 11 13 12 12 14 13 12 17 14 14 14 16 18 22 23 24 25 26
6 5 4 3 4 5 7 8 10 13 16 16 20 25 27 25 20 21 15 13 11 12 14 14 15 13 13 15 16 15 16 16 16 20 19 19 20 19 19 21 23 25 25
6 5 3 3 2 3 5 6 9 11 13 19 16 19 25 25 28 21 23 18 17 18 18 19 17 16 15 15 16 17 18 19 20 21 22 23 24 24 24 24 26 26 27
5 3 2 2 3 4 5 6 8 9 12 12 17 13 13 19 25 27 21 24 24 21 20 22 22 20 18 18 19 20 20 21 22 24 25 27 28 27 26 26 28 31 29
3 3 3 4 5 5 5 6 7 8 9 11 13 16 18 19 18 20 24 24 24 23 24 25 26 24 22 21 21 22 22 23 23 24 26 28 29 30 30 30 30 30 32
4 5 5 5 6 6 6 7 7 8 9 10 11 12 15 18 21 21 22 25 24 27 25 26 27 26 24 24 23 23 24 25 25 26 28 30 31 32 33 33 32 32 33
6 7 8 7 7 7 7 9 9 10 10 11 12 14 15 17 18 21 23 26 27 27 29 30 27 28 28 27 26 23 24 26 27 27 29 30 31 32 33 34 33 34 36
7 9 10 10 9 9 9 10 11 11 13 13 14 15 17 18 18 19 23 27 31 28 28 29 31 30 28 27 26 25 27 27 28 29 29 30 33 34 35 35 36 36 36
9 11 11 12 13 13 12 12 13 13 15 15 15 17 17 18 18 19 20 22 26 34 31 33 33 31 31 30 30 30 28 28 29 30 30 31 32 32 34 35 37 36 35
12 13 14 14 15 15 16 16 16 16 17 18 17 17 19 19 19 19 19 21 22 27 33 32 34 34 32 33 33 31 30 29 30 30 29 29 30 31 32 33 32 34 39
13 14 15 16 16 17 17 18 18 19 19 20 20 20 22 20 21 21 21 23 24 26 30 32 33 34 33 33 33 31 31 30 29 29 27 26 26 27 30 29 36 35 35
14 15 16 17 18 18 18 19 20 21 22 22 22 23 24 23 24 23 24 24 25 26 29 33 32 33 33 32 33 33 32 30 29 27 21 19 20 22 24 28 30 36 42
15 18 19 19 19 19 20 20 22 23 24 24 24 25 26 26 27 27 26 26 26 27 28 30 32 32 32 32 32 30 30 29 27 21 20 21 23 24 27 32 34 31 33
17 19 21 21 22 22 22 23 23 25 26 26 26 26 27 28 29 28 28 27 28 28 28 29 30 32 33 31 29 30 29 27 26 25 24 23 24 25 29 31 36 31 39
17 20 22 23 24 24 24 25 25 27 27 28 28 28 29 28 27 27 28 28 28 28 28 29 31 33 33 32 29 27 27 28 27 24 23 22 21 22 23 25 34 36 30
18 20 22 24 26 26 26 26 27 27 28 30 32 32 31 30 30 29 28 27 26 27 27 28 30 31 31 28 25 25 26 29 32 25 22 22 21 21 19 24 19 25 24
18 20 22 25 27 27 27 28 28 28 29 31 33 33 33 31 30 29 29 28 27 27 25 26 28 28 27 25 24 24 24 26 27 24 24 24 22 20 18 20 30 33 21
18 20 23 25 27 28 28 28 28 29 30 31 32 32 33 33 31 30 29 30 29 28 28 26 25 24 22 22 21 22 25 27 26 21 20 25 23 21 21 18 30 37 30
18 21 24 26 27 28 28 28 28 29 31 31 31 32 33 33 32 31 31 30 29 29 28 26 23 22 22 23 25 29 32 32 35 29 23 23 23 23 21 23 21 33 35
19 21 24 26 27 28 28 26 27 30 32 32 32 32 32 31 32 33 32 31 32 30 28 27 25 23 24 27 29 30 32 33 32 32 24 24 25 24 27 22 20 26 30
Wind_Direction
138 129 120 110 105 95 86 79 75 68 63 59 54 51 49 48 47 50 50 52 43 41 25 18 14 11 6 0 356 354 351 350 347 342 338 336 334 334 333 330 325 331 328
121 116 110 101 87 76 71 65 55 52 48 45 43 41 37 34 34 34 38 35 31 33 34 18 14 10 4 1 357 352 348 345 344 342 339 335 333 331 329 327 325 322 320
112 101 90 83 73 64 56 48 39 36 33 30 28 26 24 20 17 17 21 21 16 12 14 16 13 5 1 357 357 353 347 342 340 339 337 335 333 330 328 326 321 322 319
103 90 81 75 64 55 48 39 32 28 24 19 17 15 12 8 2 2 359 359 2 359 354 354 351 323 334 348 349 348 349 345 340 336 335 333 329 328 327 325 320 320 318
101 90 76 67 60 54 47 36 28 23 18 15 12 7 3 356 349 352 349 349 347 349 342 340 342 336 307 262 316 339 340 339 338 337 333 329 327 325 323 323 322 318 315
117 97 82 69 55 44 36 26 19 15 13 10 5 359 353 344 345 344 343 348 348 346 344 338 338 338 335 322 322 326 322 329 331 329 329 328 325 323 320 318 318 317 316
129 112 92 64 46 33 25 22 16 11 7 8 3 2 3 7 2 5 358 353 347 347 347 341 332 330 329 322 319 326 324 323 325 325 323 323 322 319 317 315 313 313 310
139 124 111 87 54 29 16 10 8 6 3 6 3 359 1 3 15 4 1 355 348 348 344 343 337 328 324 326 323 318 318 317 318 320 318 318 317 315 314 313 311 309 310
146 136 112 81 46 23 356 356 359 358 353 359 2 0 359 359 355 7 359 355 349 342 338 338 336 331 325 321 319 318 315 314 313 314 314 314 313 311 308 307 306 306 304
122 110 96 57 26 14 353 347 352 347 352 344 354 349 343 346 352 351 2 353 344 338 333 331 329 329 325 321 317 315 313 309 308 308 308 309 308 307 305 303 301 299 299
97 80 55 35 17 7 356 350 346 346 341 340 341 346 344 341 336 331 335 343 345 340 334 330 326 324 320 318 317 316 314 312 308 306 305 304 304 303 302 300 298 298 296
54 41 31 19 10 5 358 353 344 337 335 330 332 331 331 338 342 337 330 331 331 336 334 330 327 326 322 318 314 311 313 312 310 308 305 304 302 301 300 298 296 294 294
33 23 19 11 6 1 359 0 353 344 337 333 329 327 327 323 326 328 327 326 328 333 333 331 329 326 323 322 319 311 312 313 311 310 307 305 303 300 298 296 294 293 291
19 21 19 14 7 1 359 358 354 350 347 337 332 330 327 324 324 323 324 327 326 326 330 328 334 330 328 325 321 315 311 311 311 311 309 308 305 301 298 296 293 291 289
22 19 16 12 11 8 4 0 355 351 349 344 337 335 329 327 326 322 321 321 323 325 324 330 330 333 330 329 326 321 315 311 310 310 309 308 308 304 301 296 293 290 291
20 17 14 12 10 7 5 3 358 355 352 349 344 338 333 332 329 325 319 320 318 316 316 326 326 327 327 325 324 322 319 314 312 309 307 307 309 308 305 300 297 293 288
15 12 11 9 6 4 3 0 358 356 352 349 345 341 337 336 332 328 324 323 320 320 314 320 324 325 325 324 325 325 322 318 314 311 308 306 307 308 309 304 296 294 292
8 6 5 4 2 0 360 358 355 354 351 348 346 343 339 338 333 330 328 324 322 320 318 316 323 325 324 325 324 323 323 323 320 317 310 300 301 303 304 305 301 297 290
1 1 0 358 357 356 355 354 352 350 349 346 345 343 340 339 335 334 331 328 325 323 321 320 322 326 325 326 325 325 326 325 324 322 317 314 311 309 310 307 302 299 297
354 356 356 356 355 354 352 351 350 349 348 347 346 344 342 340 337 335 333 330 329 326 326 324 324 326 328 330 329 328 329 330 327 326 323 320 318 316 314 312 304 302 297
348 351 353 353 352 351 350 349 349 348 347 347 346 345 344 343 341 338 336 334 333 332 331 329 328 331 331 332 330 334 331 331 332 332 329 330 325 320 316 316 308 303 306
342 345 348 349 348 348 348 347 346 346 346 346 344 345 347 347 346 344 342 340 336 335 333 333 333 332 334 336 338 337 336 336 333 340 334 329 333 328 322 317 313 312 306
335 339 342 345 345 345 346 345 345 347 346 346 345 346 347 348 347 345 344 344 344 343 339 336 334 335 336 338 338 336 335 334 333 334 334 329 332 328 331 327 314 307 308
328 334 338 341 343 343 343 344 346 346 346 346 346 347 348 349 349 349 349 349 349 348 345 342 339 339 340 339 337 335 334 333 334 334 335 330 334 329 328 330 317 301 307
323 329 335 339 340 340 342 343 345 345 345 345 347 350 350 350 352 352 350 347 347 347 348 347 347 345 344 342 338 335 332 331 330 334 339 332 332 332 333 330 332 311 298
318 326 332 336 337 338 340 342 344 344 344 345 347 349 351 354 353 351 348 346 344 345 348 349 350 351 349 343 340 338 336 333 333 332 339 333 333 333 333 337 340 329 310